| time (UTC) | temp F | wind direction | speed knots | gust knots | rain 1hr in | rain 24hr in | rain mn in | humidity % | barometer mb |
| 20260902204129 | 57 | 48 | 6.1 | 7.8 | 0.00 | 0.00 | 0.00 | 76 | 857.7 |
| 20260902203514 | 57 | 46 | 5.2 | 7.8 | 0.00 | 0.00 | 0.00 | 76 | 857.7 |
| 20260902202515 | 57 | 47 | 5.2 | 8.7 | 0.00 | 0.00 | 0.00 | 76 | 857.7 |
| 20260902201128 | 58 | 45 | 4.3 | 7.8 | 0.00 | 0.00 | 0.00 | 75 | 857.8 |
| 20260902200515 | 57 | 42 | 3.5 | 7.0 | 0.00 | 0.00 | 0.00 | 77 | 857.9 |
| 20260902195515 | 57 | 48 | 3.5 | 6.1 | 0.00 | 0.00 | 0.00 | 77 | 857.9 |
| 20260902194128 | 57 | 51 | 3.5 | 6.1 | 0.00 | 0.00 | 0.00 | 78 | 857.7 |
| 20260902193515 | 58 | 47 | 3.5 | 6.1 | 0.00 | 0.00 | 0.00 | 77 | 857.8 |
| 20260902192514 | 58 | 51 | 3.5 | 5.2 | 0.00 | 0.00 | 0.00 | 76 | 857.8 |
| 20260902191128 | 58 | 49 | 2.6 | 4.3 | 0.00 | 0.00 | 0.00 | 75 | 857.8 |
| 20260902190514 | 59 | 44 | 3.5 | 5.2 | 0.00 | 0.00 | 0.00 | 75 | 857.6 |
| 20260902185515 | 59 | 47 | 2.6 | 4.3 | 0.00 | 0.00 | 0.00 | 74 | 857.5 |
| 20260902184128 | 59 | 44 | 2.6 | 4.3 | 0.00 | 0.00 | 0.00 | 73 | 857.5 |
| 20260902183515 | 60 | 47 | 2.6 | 3.5 | 0.00 | 0.00 | 0.00 | 73 | 857.4 |
| 20260902182515 | 61 | 44 | 0.9 | 2.6 | 0.00 | 0.00 | 0.00 | 69 | 857.3 |
| 20260902181128 | 61 | 99 | 0.9 | 5.2 | 0.00 | 0.00 | 0.00 | 69 | 857.3 |
| 20260902180515 | 61 | 76 | 0.9 | 4.3 | 0.00 | 0.00 | 0.00 | 71 | 857.2 |
| 20260902175515 | 61 | 47 | 1.7 | 3.5 | 0.00 | 0.00 | 0.00 | 71 | 857.0 |
| 20260902174128 | 62 | 45 | 2.6 | 3.5 | 0.00 | 0.00 | 0.00 | 71 | 856.9 |
| 20260902173514 | 62 | 60 | 1.7 | 3.5 | 0.00 | 0.00 | 0.00 | 68 | 856.9 |
| 20260902172515 | 64 | 56 | 1.7 | 3.5 | 0.00 | 0.00 | 0.00 | 65 | 856.9 |
| 20260902171128 | 65 | 172 | 0.9 | 4.3 | 0.00 | 0.00 | 0.00 | 62 | 856.9 |
| 20260902170515 | 65 | 195 | 1.7 | 4.3 | 0.00 | 0.00 | 0.00 | 59 | 856.9 |
| 20260902165515 | 65 | 198 | 2.6 | 6.1 | 0.00 | 0.00 | 0.00 | 57 | 857.0 |
| 20260902164128 | 66 | 216 | 3.5 | 7.8 | 0.00 | 0.00 | 0.00 | 56 | 856.8 |
| 20260902163515 | 67 | 218 | 5.2 | 9.6 | 0.00 | 0.00 | 0.00 | 54 | 856.9 |
| 20260902162515 | 67 | 209 | 5.2 | 11.3 | 0.00 | 0.00 | 0.00 | 53 | 856.9 |
| 20260902161128 | 68 | 219 | 5.2 | 13.0 | 0.00 | 0.00 | 0.00 | 50 | 856.8 |
| 20260902160514 | 69 | 224 | 6.1 | 12.2 | 0.00 | 0.00 | 0.00 | 46 | 856.8 |
| 20260902155515 | 69 | 230 | 7.0 | 12.2 | 0.00 | 0.00 | 0.00 | 46 | 856.8 |
| 20260902154128 | 69 | 223 | 5.2 | 10.4 | 0.00 | 0.00 | 0.00 | 46 | 856.7 |
| 20260902153515 | 70 | 218 | 5.2 | 11.3 | 0.00 | 0.00 | 0.00 | 48 | 856.9 |
| 20260902152514 | 69 | 229 | 7.0 | 11.3 | 0.00 | 0.00 | 0.00 | 47 | 856.8 |
| 20260902151128 | 70 | 233 | 6.1 | 10.4 | 0.00 | 0.00 | 0.00 | 46 | 856.9 |
| 20260902150515 | 70 | 231 | 6.1 | 10.4 | 0.00 | 0.00 | 0.00 | 44 | 856.9 |
| 20260902145515 | 70 | 230 | 6.1 | 10.4 | 0.00 | 0.00 | 0.00 | 46 | 856.9 |
| 20260902144129 | 70 | 222 | 4.3 | 10.4 | 0.00 | 0.00 | 0.00 | 47 | 856.9 |
| 20260902143514 | 69 | 236 | 7.0 | 11.3 | 0.00 | 0.00 | 0.00 | 47 | 856.9 |
| 20260902142515 | 69 | 235 | 6.1 | 11.3 | 0.00 | 0.00 | 0.00 | 47 | 856.8 |
| 20260902141128 | 69 | 237 | 7.0 | 11.3 | 0.00 | 0.00 | 0.00 | 47 | 856.8 |
| 20260902140515 | 71 | 228 | 5.2 | 10.4 | 0.00 | 0.00 | 0.00 | 48 | 857.1 |
| 20260902135515 | 69 | 220 | 6.1 | 10.4 | 0.00 | 0.00 | 0.00 | 49 | 857.0 |
| 20260902134126 | 68 | 217 | 4.3 | 11.3 | 0.00 | 0.00 | 0.00 | 48 | 856.9 |
| 20260902133515 | 69 | 228 | 6.1 | 11.3 | 0.00 | 0.00 | 0.00 | 46 | 856.9 |
| 20260902132515 | 70 | 235 | 7.0 | 11.3 | 0.00 | 0.00 | 0.00 | 44 | 857.0 |
| 20260902131128 | 70 | 229 | 5.2 | 8.7 | 0.00 | 0.00 | 0.00 | 48 | 857.1 |
| 20260902130515 | 69 | 226 | 5.2 | 9.6 | 0.00 | 0.00 | 0.00 | 47 | 857.0 |
| 20260902125515 | 69 | 230 | 6.1 | 10.4 | 0.00 | 0.00 | 0.00 | 49 | 857.2 |
| 20260902124127 | 69 | 224 | 4.3 | 9.6 | 0.00 | 0.00 | 0.00 | 49 | 857.2 |
| 20260902123515 | 68 | 223 | 5.2 | 9.6 | 0.00 | 0.00 | 0.00 | 50 | 857.2 |
| 20260902122515 | 67 | 236 | 6.1 | 10.4 | 0.00 | 0.00 | 0.00 | 52 | 857.2 |
| 20260902121128 | 67 | 244 | 7.0 | 11.3 | 0.00 | 0.00 | 0.00 | 51 | 857.3 |
| 20260902120514 | 67 | 242 | 7.0 | 11.3 | 0.00 | 0.00 | 0.00 | 49 | 857.3 |
| 20260902115514 | 67 | 234 | 5.2 | 9.6 | 0.00 | 0.00 | 0.00 | 53 | 857.3 |
| 20260902114128 | 67 | 246 | 7.0 | 11.3 | 0.00 | 0.00 | 0.00 | 53 | 857.3 |
| 20260902113515 | 68 | 233 | 6.1 | 13.9 | 0.00 | 0.00 | 0.00 | 49 | 857.2 |
| 20260902112515 | 67 | 218 | 6.1 | 11.3 | 0.00 | 0.00 | 0.00 | 54 | 857.2 |
| 20260902111128 | 67 | 205 | 3.5 | 7.8 | 0.00 | 0.00 | 0.00 | 50 | 857.1 |
| 20260902110515 | 67 | 161 | 0.9 | 2.6 | 0.00 | 0.00 | 0.00 | 51 | 857.2 |
| 20260902105514 | 66 | 188 | 1.7 | 4.3 | 0.00 | 0.00 | 0.00 | 50 | 857.2 |
| 20260902104128 | 65 | 208 | 2.6 | 5.2 | 0.00 | 0.00 | 0.00 | 54 | 857.2 |
| 20260902103515 | 65 | 178 | 1.7 | 3.5 | 0.00 | 0.00 | 0.00 | 52 | 857.1 |
| 20260902102514 | 65 | 179 | 1.7 | 3.5 | 0.00 | 0.00 | 0.00 | 52 | 857.3 |
| 20260902101128 | 65 | 243 | 2.6 | 5.2 | 0.00 | 0.00 | 0.00 | 51 | 857.4 |
| 20260902100515 | 64 | 251 | 3.5 | 7.0 | 0.00 | 0.00 | 0.00 | 57 | 857.4 |
| 20260902095515 | 64 | 233 | 3.5 | 6.1 | 0.00 | 0.00 | 0.00 | 60 | 857.3 |
| 20260902094128 | 63 | 222 | 4.3 | 7.8 | 0.00 | 0.00 | 0.00 | 57 | 857.4 |
| 20260902093515 | 64 | 227 | 4.3 | 7.8 | 0.00 | 0.00 | 0.00 | 55 | 857.4 |
| 20260902092514 | 64 | 221 | 3.5 | 6.1 | 0.00 | 0.00 | 0.00 | 57 | 857.4 |
| 20260902091127 | 64 | 193 | 1.7 | 4.3 | 0.00 | 0.00 | 0.00 | 60 | 857.5 |
| 20260902090515 | 64 | 127 | 0.9 | 1.7 | 0.00 | 0.00 | 0.00 | 61 | 857.4 |
| 20260902084127 | 62 | 92 | 1.7 | 1.7 | 0.00 | 0.00 | 0.00 | 62 | 857.2 |
| 20260902083515 | 60 | 58 | 1.7 | 2.6 | 0.00 | 0.00 | 0.00 | 74 | 856.9 |
| 20260902082515 | 60 | 68 | 1.7 | 2.6 | 0.00 | 0.00 | 0.00 | 72 | 856.9 |
| 20260902081127 | 59 | 55 | 1.7 | 2.6 | 0.00 | 0.00 | 0.00 | 72 | 856.8 |
| 20260902080515 | 59 | 59 | 1.7 | 2.6 | 0.00 | 0.00 | 0.00 | 73 | 856.7 |
| 20260902075515 | 59 | 60 | 1.7 | 2.6 | 0.00 | 0.00 | 0.00 | 72 | 856.7 |
| 20260902074128 | 58 | 53 | 2.6 | 3.5 | 0.00 | 0.00 | 0.00 | 72 | 856.6 |
| 20260902073514 | 58 | 53 | 2.6 | 3.5 | 0.00 | 0.00 | 0.00 | 72 | 856.6 |
| 20260902072515 | 57 | 51 | 2.6 | 3.5 | 0.00 | 0.00 | 0.00 | 75 | 856.6 |
| 20260902071328 | 55 | 43 | 2.6 | 3.5 | 0.00 | 0.00 | 0.00 | 78 | 856.4 |
| 20260902070514 | 55 | 48 | 2.6 | 3.5 | 0.00 | 0.00 | 0.00 | 78 | 856.4 |
| 20260902065514 | 55 | 42 | 2.6 | 3.5 | 0.00 | 0.00 | 0.00 | 78 | 856.4 |
| 20260902064128 | 54 | 44 | 3.5 | 4.3 | 0.00 | 0.00 | 0.00 | 79 | 856.3 |
| 20260902062515 | 51 | 54 | 3.5 | 4.3 | 0.00 | 0.00 | 0.00 | 84 | 856.2 |
| 20260902061128 | 51 | 49 | 3.5 | 5.2 | 0.00 | 0.00 | 0.00 | 82 | 856.2 |
| 20260902060515 | 51 | 52 | 3.5 | 5.2 | 0.00 | 0.00 | 0.00 | 85 | 856.1 |
| 20260902055515 | 51 | 52 | 3.5 | 5.2 | 0.00 | 0.00 | 0.00 | 82 | 856.2 |
| 20260902054128 | 51 | 50 | 4.3 | 6.1 | 0.00 | 0.00 | 0.00 | 82 | 856.1 |
| 20260902053515 | 51 | 51 | 4.3 | 6.1 | 0.00 | 0.00 | 0.00 | 83 | 856.0 |
| 20260902052514 | 51 | 51 | 3.5 | 6.1 | 0.00 | 0.00 | 0.00 | 83 | 856.0 |
| 20260902051128 | 50 | 53 | 3.5 | 5.2 | 0.00 | 0.00 | 0.00 | 85 | 855.9 |
| 20260902050514 | 50 | 53 | 4.3 | 7.0 | 0.00 | 0.00 | 0.00 | 85 | 855.9 |
| 20260902045515 | 51 | 52 | 4.3 | 6.1 | 0.00 | 0.00 | 0.00 | 85 | 855.8 |
| 20260902044128 | 51 | 50 | 4.3 | 7.0 | 0.00 | 0.00 | 0.00 | 85 | 855.8 |
| 20260902043515 | 51 | 49 | 5.2 | 7.8 | 0.00 | 0.00 | 0.00 | 84 | 855.8 |
| 20260902042515 | 52 | 48 | 5.2 | 7.8 | 0.00 | 0.00 | 0.00 | 83 | 855.8 |
| 20260902041128 | 53 | 46 | 6.1 | 7.8 | 0.00 | 0.00 | 0.00 | 83 | 855.8 |
| 20260902040514 | 52 | 46 | 6.1 | 7.8 | 0.00 | 0.00 | 0.00 | 84 | 855.8 |
| 20260902035515 | 53 | 47 | 5.2 | 7.0 | 0.00 | 0.00 | 0.00 | 84 | 855.8 |
| 20260902034515 | 52 | 47 | 5.2 | 7.8 | 0.00 | 0.00 | 0.00 | 85 | 855.9 |
| 20260902033514 | 52 | 46 | 5.2 | 7.8 | 0.00 | 0.00 | 0.00 | 86 | 856.0 |
| 20260902032514 | 51 | 47 | 4.3 | 7.0 | 0.00 | 0.00 | 0.00 | 88 | 855.9 |
| 20260902031514 | 51 | 49 | 5.2 | 7.0 | 0.00 | 0.00 | 0.00 | 87 | 856.0 |
| 20260902030515 | 52 | 50 | 5.2 | 7.0 | 0.00 | 0.00 | 0.00 | 87 | 856.1 |
| 20260902025514 | 52 | 50 | 3.5 | 6.1 | 0.00 | 0.00 | 0.00 | 88 | 856.1 |
| 20260902024515 | 51 | 51 | 3.5 | 5.2 | 0.00 | 0.00 | 0.00 | 88 | 856.0 |
| 20260902023515 | 52 | 46 | 3.5 | 5.2 | 0.00 | 0.00 | 0.00 | 87 | 856.1 |
| 20260902022514 | 52 | 51 | 3.5 | 4.3 | 0.00 | 0.00 | 0.00 | 89 | 856.0 |
| 20260902021514 | 52 | 51 | 3.5 | 5.2 | 0.00 | 0.00 | 0.00 | 88 | 856.2 |
| 20260902015515 | 53 | 47 | 3.5 | 5.2 | 0.00 | 0.00 | 0.00 | 86 | 856.1 |
| 20260902014515 | 52 | 49 | 4.3 | 6.1 | 0.00 | 0.00 | 0.00 | 87 | 856.2 |
| 20260902013514 | 53 | 45 | 4.3 | 7.0 | 0.00 | 0.00 | 0.00 | 86 | 856.2 |
| 20260902012515 | 53 | 47 | 4.3 | 7.0 | 0.00 | 0.00 | 0.00 | 87 | 856.2 |
| 20260902011514 | 53 | 48 | 5.2 | 7.0 | 0.00 | 0.00 | 0.00 | 85 | 856.3 |
| 20260902010515 | 53 | 50 | 5.2 | 7.8 | 0.00 | 0.00 | 0.00 | 86 | 856.3 |
| 20260902005514 | 53 | 51 | 4.3 | 7.0 | 0.00 | 0.00 | 0.00 | 86 | 856.4 |
| 20260901221128 | 54 | 48 | 4.3 | 5.2 | 0.00 | 0.00 | 0.00 | 86 | 857.2 |
| 20260901220515 | 54 | 52 | 3.5 | 5.2 | 0.00 | 0.00 | 0.00 | 86 | 857.2 |
| 20260901215515 | 54 | 46 | 4.3 | 6.1 | 0.00 | 0.00 | 0.00 | 84 | 857.2 |
| 20260901214128 | 54 | 46 | 4.3 | 6.1 | 0.00 | 0.00 | 0.00 | 85 | 857.1 |
| 20260901213515 | 54 | 52 | 3.5 | 7.0 | 0.00 | 0.00 | 0.00 | 86 | 857.1 |
| 20260901212515 | 55 | 44 | 4.3 | 7.0 | 0.00 | 0.00 | 0.00 | 83 | 857.1 |
| 20260901211128 | 55 | 50 | 5.2 | 7.0 | 0.00 | 0.00 | 0.00 | 85 | 857.1 |
| 20260901210514 | 55 | 50 | 4.3 | 6.1 | 0.00 | 0.00 | 0.00 | 86 | 857.1 |
| 20260901205515 | 55 | 53 | 3.5 | 5.2 | 0.00 | 0.00 | 0.00 | 85 | 857.1 |